Wind_Speed
3 5 8 11 12 12 14 17 17 17 19 20 17 16 21 23 22 22 20 18 17 16 15 14 13 10 9 8 7 7 7 5 5 5 5 6 6 6 6 5 5 4 4 3 3 2 3 4 3 5 6 6 5 3 3 2 3 5 8 10 9 8 6 5 5 6 5 4 4 3 4 5 6 6 6 6 6 6 6 5 4 4 4 6 10
4 5 8 11 11 11 13 15 16 16 18 20 18 18 22 23 23 23 21 19 17 17 16 15 12 10 9 9 8 8 7 6 6 5 5 5 6 6 6 6 6 6 6 6 5 5 5 4 3 3 4 4 4 3 3 3 3 6 9 10 8 7 6 7 7 5 5 5 4 3 2 3 4 5 6 7 8 8 8 8 6 4 2 4 5
5 5 8 12 13 12 14 14 15 16 17 19 20 20 22 23 23 23 21 19 18 17 17 14 11 10 8 8 9 8 8 6 5 4 4 4 4 5 5 5 5 5 6 6 6 5 5 4 3 2 3 3 3 3 2 3 3 4 7 8 8 7 6 8 8 6 5 6 4 2 1 1 2 3 4 6 8 9 10 10 8 6 6 6 6
6 6 7 11 14 15 16 15 15 15 16 18 19 21 22 23 24 23 21 20 20 19 18 14 12 11 9 8 9 8 7 6 5 4 4 4 3 3 2 2 3 4 5 6 5 5 4 4 3 2 3 3 3 1 1 2 2 3 4 6 7 7 6 7 8 7 7 7 4 1 1 1 1 2 2 4 7 9 9 9 8 7 6 7 6
7 6 6 8 11 15 16 16 16 16 17 18 19 20 22 24 23 22 22 23 21 21 19 16 14 13 12 11 10 9 8 7 6 6 5 4 4 3 3 2 2 3 4 4 5 4 3 3 1 1 2 3 3 2 2 2 2 4 5 5 5 6 6 5 6 6 7 7 5 3 2 0 1 1 0 1 4 6 6 7 8 7 5 5 7
6 5 5 6 9 12 15 17 18 18 19 19 20 21 22 23 23 23 25 24 23 22 20 17 16 15 14 14 13 11 10 9 7 7 6 5 6 6 6 6 4 4 3 2 3 3 3 4 2 2 3 4 3 3 2 2 3 4 4 4 3 3 3 3 4 5 4 3 4 4 2 2 3 3 1 1 2 2 2 2 3 4 3 4 6
5 5 6 7 9 12 14 18 21 21 20 20 20 22 24 25 25 26 26 25 24 23 21 19 17 15 14 14 14 13 12 10 8 8 7 7 7 8 8 8 6 5 4 3 3 3 3 4 4 3 5 5 5 4 4 3 2 3 4 5 3 2 1 2 3 4 3 2 3 3 3 3 5 4 2 1 2 4 6 7 7 5 0 3 5
6 6 7 7 10 13 15 18 20 21 21 22 24 24 24 25 25 26 25 25 24 23 22 21 18 16 15 14 14 12 11 10 9 8 8 7 7 8 8 8 7 6 4 3 3 4 4 4 4 6 7 7 6 6 6 6 4 3 3 5 4 3 2 2 3 3 3 3 5 4 2 3 5 4 2 2 2 3 5 8 11 13 11 6 2
6 7 7 9 12 15 15 16 18 21 24 23 19 14 12 15 20 23 24 24 23 22 23 21 17 16 15 15 14 12 9 9 9 9 9 8 6 7 7 7 6 6 4 2 3 4 4 4 4 5 6 6 6 6 6 6 6 5 4 5 5 5 4 3 3 3 3 2 5 5 4 6 6 7 6 5 4 4 3 2 6 12 17 18 14
6 6 7 10 13 14 14 15 17 20 20 16 12 9 9 13 18 22 25 23 22 22 23 21 17 15 15 14 13 12 10 10 10 10 9 7 6 6 6 6 6 5 5 4 5 5 4 4 4 4 5 5 5 5 6 6 6 6 7 7 7 7 7 5 4 4 4 4 3 4 7 8 6 7 6 5 7 8 5 2 4 7 11 17 22
6 6 6 9 12 13 13 15 17 16 14 13 14 16 21 24 22 22 24 23 21 21 22 20 16 14 14 13 13 12 10 10 11 11 9 8 7 7 6 6 6 6 6 6 6 6 4 3 3 4 5 5 5 4 4 5 6 7 8 10 11 11 11 10 9 8 8 10 10 9 10 9 8 8 5 5 8 8 5 3 6 7 7 12 20
6 6 6 7 9 10 12 14 14 13 14 15 18 24 29 29 25 23 22 20 19 20 20 18 16 15 15 14 13 11 10 9 10 9 9 9 8 8 7 6 6 6 7 7 6 5 4 2 2 4 5 5 4 4 4 6 8 9 9 10 11 11 12 12 13 13 13 14 14 14 14 13 12 11 8 9 10 10 9 5 4 5 5 9 14
5 3 3 4 7 9 12 13 13 13 15 16 19 25 29 29 28 25 20 16 16 17 18 17 17 17 17 16 15 13 11 10 9 9 9 9 8 7 6 6 6 6 6 6 6 5 3 3 4 5 6 5 5 5 6 8 9 9 9 9 9 10 10 10 13 14 13 14 14 13 13 13 14 12 10 10 10 11 12 7 4 4 5 7 10
5 5 4 3 1 8 10 11 13 14 16 18 20 25 30 29 24 16 13 14 17 17 17 17 17 18 19 18 16 15 13 11 10 10 10 9 6 5 5 5 5 5 6 6 6 4 3 4 5 7 7 7 7 7 8 8 8 8 8 8 8 9 9 10 12 13 13 12 12 11 12 13 14 13 12 12 11 11 10 6 5 6 7 8 10
6 6 5 6 8 2 10 11 14 17 19 20 21 26 28 21 14 18 15 14 16 15 15 16 17 18 18 19 18 17 15 12 11 11 10 8 6 4 4 4 3 4 5 6 5 4 3 4 5 6 7 7 7 7 8 8 8 8 8 8 9 9 9 10 11 11 12 12 11 12 13 14 14 13 12 13 12 12 12 8 6 5 6 6 6
5 4 6 1 11 8 8 13 16 18 20 22 24 25 21 13 18 23 20 16 15 15 16 16 18 18 19 20 20 18 16 14 13 12 11 8 5 3 3 3 2 2 4 5 5 4 4 4 3 3 4 4 4 5 6 7 7 8 8 9 10 9 9 10 10 10 11 12 12 12 13 15 14 13 13 13 12 13 13 12 9 6 5 3 2
5 3 2 3 8 10 7 12 15 17 19 22 23 20 13 14 22 27 22 21 20 19 18 18 19 19 20 20 20 19 17 15 14 13 12 9 4 2 4 4 3 3 4 6 6 5 4 4 3 2 1 1 1 2 4 5 6 7 7 8 9 8 8 9 9 10 11 12 12 12 13 14 13 12 13 12 12 12 12 13 13 11 8 5 2
3 4 2 1 3 5 7 12 15 18 20 21 21 15 12 17 24 25 22 26 26 22 20 20 20 19 19 20 20 20 18 16 14 12 12 10 7 4 7 5 4 4 5 6 6 6 5 4 4 3 3 2 1 1 1 3 4 5 6 7 7 7 7 9 8 9 11 11 12 12 12 13 12 11 11 10 10 10 10 11 12 13 12 9 5
3 2 3 1 1 1 6 13 16 18 19 20 19 15 16 22 22 17 21 25 24 24 24 22 20 19 19 20 21 21 20 17 14 13 14 14 11 8 8 6 5 5 6 6 7 6 6 6 6 6 5 4 3 2 1 0 1 3 4 5 6 5 6 8 8 9 10 10 11 11 10 10 9 8 9 9 8 9 9 10 11 11 13 13 9
4 2 1 2 4 5 5 10 13 15 16 16 17 17 21 25 20 16 21 23 23 24 25 24 21 19 19 21 22 22 22 19 17 17 17 16 14 11 9 7 6 6 6 7 6 6 6 6 7 8 8 7 6 5 3 2 2 0 2 3 4 3 4 6 7 8 9 8 9 10 9 8 7 7 8 8 8 9 8 9 10 10 11 11 10
3 2 2 3 5 7 7 7 9 11 13 14 16 19 22 22 18 16 19 22 23 24 24 23 20 19 21 22 22 24 24 21 20 19 18 18 16 13 11 9 8 8 7 7 7 7 6 6 7 9 10 10 9 8 6 5 4 3 1 1 2 2 2 3 5 6 7 6 6 7 8 7 6 6 7 7 7 7 7 7 8 8 10 9 9
3 3 4 3 5 8 9 9 8 10 11 13 15 18 21 22 20 18 19 22 21 22 24 22 21 22 23 23 21 22 22 20 20 20 19 19 18 14 12 12 12 12 11 10 9 9 8 8 8 9 10 11 11 10 9 8 6 5 4 3 2 2 2 2 2 4 5 4 3 4 5 5 5 5 6 6 6 6 5 6 7 7 9 10 9
3 4 4 3 5 8 10 10 9 9 9 11 13 15 19 21 21 22 21 21 20 20 21 22 23 24 25 24 22 21 19 19 21 22 21 21 19 16 13 13 15 15 14 13 12 10 10 10 10 10 10 11 12 12 12 11 9 8 6 5 5 4 4 4 3 3 4 3 2 3 3 3 3 4 5 5 5 5 4 5 7 8 8 9 9
2 4 4 4 6 7 9 10 9 8 7 8 9 11 14 17 20 21 20 19 18 17 18 21 23 24 25 25 23 22 20 20 22 23 23 21 19 17 15 15 17 16 14 14 14 14 13 13 12 11 11 11 13 14 14 14 13 11 9 8 7 7 7 6 5 5 5 4 3 3 3 3 3 3 4 5 4 4 4 5 6 7 8 8 9
3 4 4 4 4 5 7 8 8 8 7 6 7 9 11 13 15 17 17 16 15 16 17 20 22 23 23 23 22 21 21 21 24 24 23 22 20 18 16 15 14 11 10 12 13 15 16 15 13 12 13 13 14 15 17 17 17 15 12 11 10 9 9 9 9 8 7 7 6 5 4 4 4 3 3 4 3 3 3 4 5 6 7 7 7
4 4 3 3 3 3 4 7 7 7 7 7 8 8 9 11 11 13 14 14 14 14 15 16 19 21 22 21 19 19 19 20 23 24 23 23 22 18 15 13 11 8 10 12 13 15 16 16 14 14 16 16 16 18 18 20 22 20 15 13 13 11 11 12 12 11 10 10 9 8 7 7 7 6 5 4 3 3 3 2 3 4 5 5 5
5 5 5 5 5 4 4 4 5 6 6 7 8 9 10 11 11 10 11 12 13 13 13 13 15 18 19 18 17 17 16 16 19 22 23 23 21 18 15 14 12 14 16 16 15 13 12 14 16 18 20 20 18 17 17 18 23 24 19 16 15 14 13 14 14 14 13 13 12 11 11 10 10 9 8 7 6 5 3 2 1 1 3 3 4
6 6 6 6 6 7 9 9 8 6 6 7 8 9 10 10 10 11 10 11 12 12 12 12 13 14 16 17 18 17 16 15 17 20 22 22 19 16 15 14 13 15 16 15 15 12 10 14 20 22 22 21 19 19 19 19 22 24 23 18 15 15 15 16 17 17 16 15 14 14 14 13 13 12 11 9 8 6 4 3 2 0 1 2 3
7 7 6 6 6 6 9 13 14 13 12 10 9 8 8 8 9 9 10 10 10 11 11 12 12 13 14 16 17 17 16 15 16 18 19 19 16 15 14 13 12 13 12 13 14 15 16 20 23 22 20 20 20 20 18 16 16 19 19 17 15 15 16 17 18 18 18 18 17 17 16 16 16 15 13 12 9 7 5 4 3 1 2 3 3
7 7 6 6 6 7 11 14 16 16 17 15 13 11 9 7 6 6 7 8 9 9 10 10 10 11 13 14 14 15 16 16 16 16 16 15 15 14 13 12 11 11 11 12 15 16 18 21 20 19 18 18 19 19 16 14 14 15 15 15 15 15 15 16 17 17 18 19 19 20 19 18 18 18 16 13 11 9 7 6 3 1 2 3 4
7 7 7 7 7 10 13 15 16 18 18 17 15 13 10 8 6 3 3 4 5 6 8 8 9 9 11 12 12 12 14 15 15 15 15 14 14 13 11 10 10 9 9 10 12 13 15 17 18 18 17 17 17 17 17 15 13 12 12 12 12 12 12 13 14 15 16 17 18 20 20 20 21 20 17 14 13 12 10 7 5 2 1 2 2
7 7 8 8 8 10 13 15 18 21 22 21 18 15 12 11 8 5 3 2 1 2 3 5 6 7 9 9 9 10 12 14 14 13 12 11 11 11 10 9 7 7 7 8 9 10 11 13 15 16 14 13 13 13 12 10 7 7 7 8 9 10 10 12 13 14 15 16 17 18 19 20 21 21 18 16 15 13 11 8 5 2 2 2 2
6 7 7 7 7 9 13 16 18 20 22 23 22 19 17 14 10 7 4 2 1 1 2 3 3 5 6 6 7 7 9 10 11 10 9 7 7 7 6 6 5 5 7 8 8 8 7 9 11 11 9 8 7 7 6 4 3 3 3 4 5 7 8 10 11 13 15 17 17 17 18 19 20 19 18 17 17 15 13 9 6 4 4 3 3
8 8 8 9 10 11 14 16 16 17 19 20 20 20 19 16 13 11 9 6 3 2 3 3 3 4 4 5 6 6 6 7 7 8 7 6 5 5 5 6 6 7 7 6 5 5 4 5 5 5 5 3 3 3 2 2 2 2 1 2 3 5 7 8 10 11 13 15 15 16 16 17 17 17 17 18 18 17 13 9 7 6 5 4 4
8 8 10 13 16 16 17 18 18 16 16 17 17 16 16 16 15 14 14 12 9 6 4 3 1 1 2 3 4 5 5 6 7 7 8 7 7 8 9 10 10 10 9 8 7 6 5 4 2 0 1 2 2 3 3 3 3 3 2 3 4 5 7 9 10 10 11 12 13 13 14 15 15 16 17 19 19 16 12 9 8 7 7 6 6
6 8 10 14 15 15 15 17 17 17 16 15 14 13 12 12 12 12 12 12 10 9 7 6 5 3 2 2 3 3 3 5 6 6 7 9 11 12 13 13 11 10 8 7 6 5 4 3 2 2 2 2 3 4 4 5 5 4 4 4 4 5 6 8 8 8 8 9 10 10 10 12 13 14 17 19 16 13 10 9 9 9 8 7 6
8 10 12 14 14 14 14 14 15 16 17 16 15 12 11 10 9 9 9 8 7 8 8 6 5 3 2 3 4 4 4 5 6 7 9 10 11 11 11 10 10 9 7 5 4 3 3 3 3 3 3 3 4 4 5 6 6 6 5 5 4 4 4 6 6 6 5 5 5 5 6 8 11 14 18 18 13 11 10 9 9 8 7 5 4
11 12 13 14 14 13 13 13 13 14 16 16 15 14 12 11 9 9 10 9 9 9 9 7 4 4 3 2 2 5 7 8 9 9 9 9 9 9 9 9 8 7 6 5 4 5 4 4 5 7 7 6 5 4 4 5 6 7 6 5 5 4 2 3 4 4 4 3 3 2 3 6 10 14 17 15 12 10 9 8 8 7 5 4 5
13 13 13 13 13 12 11 12 13 13 14 14 14 14 13 12 11 12 12 12 12 11 10 7 2 2 2 4 2 1 4 7 9 11 11 10 9 9 9 9 8 6 4 5 5 3 2 4 7 9 10 9 7 5 4 4 5 6 6 5 5 4 2 1 1 1 1 1 1 2 3 5 8 11 12 11 10 8 7 7 7 6 5 5 6
15 15 14 13 13 12 12 12 11 11 12 12 13 13 13 12 13 13 13 13 13 13 12 11 10 8 9 10 10 7 4 3 5 7 9 9 9 9 8 8 6 5 4 4 4 1 1 3 6 8 10 10 7 5 4 4 4 5 5 5 5 5 3 4 5 5 5 6 7 7 7 7 7 7 7 7 7 6 6 5 5 4 4 4 5
15 16 17 17 16 14 13 12 10 10 11 12 12 12 12 12 12 13 14 14 13 13 13 14 15 16 18 18 18 16 14 12 10 10 9 8 8 8 8 7 7 7 6 6 5 3 3 2 4 6 8 8 7 5 4 3 2 4 5 5 5 5 5 6 7 8 8 8 9 9 8 7 6 5 5 4 3 2 2 3 3 3 4 5 6
17 17 18 19 18 17 15 14 12 10 11 11 12 13 13 12 12 13 14 14 14 13 13 13 14 16 18 20 19 18 17 16 15 15 13 12 12 11 11 10 9 9 8 8 7 5 5 4 3 3 4 6 6 5 4 2 2 3 4 5 6 6 6 6 7 9 9 9 9 8 7 6 4 3 2 1 1 2 3 3 4 4 5 6 7
17 18 18 18 18 18 18 17 14 12 12 12 12 13 14 13 14 14 14 14 15 14 14 14 14 14 15 17 19 19 18 17 17 16 16 16 16 15 13 12 11 10 10 9 8 7 6 6 4 3 2 2 4 4 3 2 2 3 4 5 6 7 7 7 7 9 9 9 8 7 6 4 3 1 0 2 2 3 3 3 3 4 4 5 6
16 17 18 18 18 18 19 18 16 14 14 13 13 15 15 15 16 16 15 16 16 16 16 16 14 14 13 14 16 19 21 21 20 19 19 19 19 18 16 14 13 12 12 11 10 9 8 7 7 6 5 3 1 2 3 3 3 4 5 6 7 8 8 8 8 9 10 9 8 7 5 3 1 0 1 2 2 2 2 2 2 3 4 6 7
17 18 20 20 19 19 20 20 19 16 15 14 14 15 17 18 17 17 17 18 18 19 19 19 17 15 14 13 13 15 19 22 22 21 21 21 21 20 18 16 15 14 13 12 11 11 10 9 9 9 8 7 6 4 4 4 4 5 6 7 8 9 9 8 9 10 10 9 7 6 4 2 1 1 1 1 1 1 1 2 3 4 6 7 9
17 18 20 21 21 21 21 22 22 21 19 17 16 17 18 19 18 17 18 19 20 21 21 21 21 19 17 15 14 13 14 18 21 22 22 22 21 20 19 17 16 16 15 13 13 13 12 11 11 11 10 9 9 8 7 7 6 7 7 8 9 9 9 8 8 9 9 8 7 5 4 4 3 3 3 3 3 2 2 3 5 6 7 9 10
18 19 20 20 20 20 20 21 23 23 22 21 21 21 20 20 19 18 19 20 21 22 22 22 22 22 20 17 15 14 12 13 17 21 23 23 22 21 20 19 18 17 16 15 14 13 13 12 12 12 12 11 10 10 10 10 10 10 10 10 9 9 9 8 8 9 8 7 7 7 6 5 5 4 4 3 3 3 4 5 6 7 8 9 11
20 21 21 20 19 19 20 21 23 23 22 23 24 24 24 24 22 21 20 20 22 22 23 24 23 22 21 20 17 15 13 12 13 16 19 22 22 21 20 20 18 18 17 17 15 13 12 11 12 13 13 13 13 13 13 13 13 13 13 12 11 10 9 8 8 8 9 9 9 8 8 7 6 5 4 4 4 4 5 6 6 7 9 10 11
21 21 20 20 20 21 22 23 24 24 24 24 26 27 27 26 26 25 22 22 22 22 22 23 23 22 22 21 19 17 16 14 12 12 14 17 19 20 20 19 18 17 16 15 13 12 11 10 11 13 15 16 17 17 16 15 14 13 12 11 10 9 8 7 7 8 9 11 11 10 9 7 5 4 4 5 5 6 6 6 7 9 10 11 12
19 20 20 20 20 20 22 23 24 24 24 25 26 27 27 27 27 27 25 25 24 24 23 23 23 22 22 21 19 17 17 16 15 12 11 13 15 17 17 17 16 16 14 13 12 11 10 11 11 13 15 16 14 14 16 16 15 13 11 10 9 9 8 8 9 9 10 11 12 10 8 6 5 5 5 5 5 6 6 7 9 10 11 13 14
18 19 19 20 20 21 21 22 23 24 24 24 25 26 27 27 26 25 25 25 26 26 27 26 25 23 23 22 19 17 15 15 16 14 12 13 15 14 14 14 15 15 15 14 13 12 11 11 11 13 16 15 11 10 15 19 17 14 13 11 10 10 10 10 11 11 11 12 10 9 7 5 4 4 4 4 4 5 7 9 11 12 12 14 16
Wind_Direction
174 170 177 177 184 190 190 189 188 193 200 205 204 196 195 195 194 199 203 201 201 199 190 184 177 170 163 156 151 141 136 136 130 122 115 109 104 99 97 94 93 97 98 97 100 116 145 161 187 210 226 239 246 236 199 210 253 225 214 219 225 210 176 173 178 167 167 175 178 189 197 202 203 204 206 199 187 182 185 194 201 217 244 258 253
141 149 161 165 178 189 190 188 185 186 192 200 204 199 195 195 196 198 198 197 202 202 191 183 177 171 163 154 153 147 142 146 143 133 121 110 103 100 97 93 91 94 99 100 101 103 112 131 166 201 218 247 257 240 182 166 207 209 199 206 221 217 195 189 186 174 174 174 167 170 197 223 220 218 221 222 220 219 220 218 213 217 254 309 289
167 154 158 164 171 182 187 190 190 187 187 193 200 198 196 196 197 197 195 194 201 202 191 181 174 173 167 158 160 157 150 153 154 148 134 118 107 98 92 93 90 91 104 108 105 99 96 105 123 164 195 225 235 234 185 162 201 207 203 219 228 223 200 185 190 194 183 164 140 131 163 223 244 241 224 219 221 226 231 228 227 230 236 268 299
189 172 169 170 171 177 185 189 191 191 187 188 193 196 198 199 198 197 196 196 199 197 189 180 174 174 170 162 166 164 158 162 161 154 151 147 138 116 93 88 88 94 106 114 116 109 100 100 104 146 182 190 177 171 156 158 191 214 234 247 234 227 212 189 191 199 191 173 140 93 90 116 234 270 248 213 216 225 231 231 232 230 223 244 278
198 186 180 177 174 177 182 185 190 194 193 192 194 197 199 199 199 199 197 195 195 192 186 180 175 171 165 161 165 162 157 160 155 145 148 151 144 128 111 103 109 111 109 120 129 125 127 129 127 184 176 164 151 138 136 155 182 214 244 254 242 240 233 211 201 199 198 191 173 145 107 115 216 231 57 185 209 220 226 232 237 234 231 254 266
204 185 177 179 176 175 179 184 188 194 196 198 199 197 196 197 197 196 194 191 190 189 186 182 179 175 171 169 167 161 157 159 155 144 141 134 121 112 108 107 110 113 114 131 133 134 153 151 156 190 168 153 143 136 142 168 198 213 218 217 228 246 234 227 223 216 213 197 178 161 148 165 162 163 161 159 173 166 173 213 228 217 224 261 261
195 172 175 181 179 177 182 187 189 192 193 194 194 192 192 193 191 189 187 186 186 186 185 184 180 178 181 181 178 173 167 167 168 160 147 135 122 112 106 104 104 100 104 115 122 131 136 136 143 147 141 136 122 108 105 110 143 186 191 190 197 218 210 206 222 227 229 210 184 153 134 139 129 133 147 129 124 83 65 64 62 62 69 273 262
186 183 185 185 188 189 189 191 190 189 189 190 190 189 188 185 182 182 182 183 184 185 187 187 182 178 181 184 182 180 177 174 175 171 158 149 137 123 112 105 102 96 92 96 119 132 123 116 136 138 129 123 112 103 96 92 93 117 160 171 176 181 186 204 216 218 213 206 202 181 132 117 104 93 83 84 131 96 61 61 63 63 62 50 3
186 191 189 189 195 194 192 192 191 190 191 190 185 175 170 174 175 178 182 185 187 187 188 188 184 181 184 184 178 173 175 174 172 170 165 163 153 134 123 111 106 99 90 99 129 133 117 108 125 134 129 125 120 108 95 92 90 97 122 142 157 157 151 168 182 174 166 175 209 196 128 93 78 68 66 70 82 92 93 67 59 65 63 59 61
189 195 193 193 194 193 192 190 191 195 192 181 161 137 150 182 187 186 189 190 189 190 190 187 184 185 187 188 182 173 172 173 171 172 170 172 164 143 129 117 112 106 103 121 134 133 121 111 123 134 135 136 132 116 98 92 89 94 104 108 115 118 117 123 122 126 122 92 117 157 121 100 81 65 57 67 79 84 97 94 47 59 63 61 65
180 187 188 184 187 188 189 189 190 191 183 170 167 172 187 201 202 196 194 192 189 190 191 187 184 191 195 195 193 185 183 184 182 180 178 177 166 147 133 122 116 112 119 130 134 131 125 122 138 138 134 135 132 119 102 95 98 104 102 99 99 96 91 90 90 96 101 90 89 101 108 107 99 86 68 69 84 91 99 82 66 73 77 72 69
172 176 171 163 166 174 181 184 182 179 174 175 181 188 196 203 203 201 197 191 188 188 191 189 186 195 202 203 203 201 203 206 199 193 187 179 165 148 139 133 130 128 129 134 134 130 116 107 137 140 138 143 144 138 123 113 114 118 113 104 99 95 91 87 87 93 97 95 92 93 96 97 95 92 84 75 84 106 123 126 117 111 91 81 78
152 131 145 164 159 165 177 174 170 174 175 178 188 194 198 202 204 200 190 181 183 189 194 194 193 201 205 205 206 208 212 215 211 203 194 185 172 158 149 140 140 144 144 142 137 128 105 94 123 130 134 141 139 133 130 128 129 128 125 116 108 104 101 97 95 96 96 95 95 92 91 89 86 83 81 79 83 104 122 137 142 125 104 83 73
92 63 23 328 192 161 162 157 162 176 181 184 193 198 200 204 199 173 148 165 184 190 196 198 200 204 206 205 206 207 210 212 210 205 195 187 179 170 165 153 142 146 157 161 154 142 123 122 127 123 123 126 125 124 128 138 145 144 137 126 116 112 107 102 100 98 96 94 92 92 89 86 85 82 81 82 81 85 96 118 120 92 87 81 66
92 90 69 356 324 173 143 151 171 182 188 190 196 200 201 196 156 122 132 175 191 195 202 205 204 204 204 205 205 207 209 206 203 204 199 189 180 183 190 180 161 155 168 176 173 169 157 145 138 126 121 121 122 123 125 135 144 144 142 132 120 118 113 106 100 97 97 95 92 93 94 93 90 88 85 81 80 77 73 88 122 114 82 71 64
77 85 103 55 299 278 165 165 179 185 189 194 201 202 193 158 124 133 161 192 204 212 216 212 207 204 205 207 204 204 205 201 198 201 203 197 184 195 218 214 203 189 189 192 188 191 191 178 164 139 125 121 122 125 122 126 135 135 138 133 126 125 118 109 105 101 99 99 99 98 98 99 96 92 91 86 84 81 73 74 90 113 122 102 57
40 357 107 158 263 265 207 179 181 184 189 198 206 199 169 128 123 136 165 200 212 217 218 214 211 207 206 205 203 204 203 200 199 199 201 196 169 216 251 241 240 241 218 209 203 206 211 207 210 212 192 123 103 121 119 118 125 128 132 130 127 128 119 108 104 100 99 103 104 102 99 100 100 96 94 91 88 84 77 72 69 75 106 136 115
59 320 314 168 232 243 204 189 190 191 195 204 205 189 152 135 131 139 175 202 209 213 213 216 216 209 205 205 205 206 205 202 199 200 203 186 158 207 247 244 247 248 230 216 210 212 223 234 240 254 266 274 308 352 96 110 113 117 124 127 128 130 121 110 103 98 102 107 106 103 101 100 98 96 92 89 88 83 76 74 70 67 77 92 109
135 277 296 291 26 110 175 184 192 193 196 202 195 175 154 146 146 171 201 204 207 213 214 218 219 210 209 211 208 205 205 202 195 196 202 188 175 205 231 232 235 238 234 224 214 213 221 236 246 253 258 259 264 285 305 307 113 111 119 124 129 137 128 116 110 103 103 108 109 107 106 103 96 91 90 86 83 83 78 77 77 73 71 73 86
128 154 308 356 32 46 125 165 182 186 188 188 175 160 152 153 164 200 215 209 210 214 215 218 218 212 212 211 208 205 204 205 200 197 199 196 193 201 209 211 216 227 236 231 222 220 223 234 246 250 253 256 256 260 269 270 268 222 130 124 122 132 138 127 120 115 108 106 108 109 108 107 106 99 94 92 90 90 87 84 81 78 77 74 77
120 122 71 36 45 56 86 128 162 172 173 172 165 158 156 162 176 195 206 210 210 212 216 216 210 207 208 209 208 205 204 208 210 206 203 205 205 199 196 207 216 222 232 235 231 231 233 244 255 257 258 257 256 256 257 257 260 262 246 178 138 131 146 143 137 137 130 115 107 110 108 106 113 116 110 106 105 101 95 90 83 77 80 79 75
119 80 56 44 53 67 84 109 137 153 159 162 162 162 163 170 180 187 199 208 211 217 219 214 206 204 209 211 208 205 207 213 216 212 210 213 212 201 195 209 223 226 227 230 232 233 236 243 250 256 260 259 258 259 258 259 257 255 255 252 233 207 199 188 171 169 163 147 128 124 117 105 107 115 116 116 113 110 102 91 81 71 73 74 70
94 82 64 50 65 80 91 100 113 130 148 158 162 168 171 177 185 192 201 211 219 224 220 213 212 213 216 217 215 214 219 223 220 217 217 217 214 207 202 210 224 230 230 231 235 236 237 240 243 248 253 256 260 262 263 264 260 256 256 255 254 248 240 237 227 210 203 200 183 163 152 130 119 118 119 120 116 107 96 83 76 66 64 66 61
90 93 75 62 75 87 90 90 95 105 123 152 167 175 178 182 188 193 201 210 215 217 215 213 216 220 222 222 221 225 232 232 224 220 220 219 216 214 214 216 224 232 236 238 241 242 244 248 252 255 257 260 263 267 270 268 261 259 261 258 259 262 260 258 253 240 233 237 235 214 201 185 167 151 132 126 123 109 90 73 70 61 51 53 53
78 68 58 64 75 86 97 100 104 109 115 135 154 170 178 180 185 189 194 199 203 207 211 214 217 220 220 219 220 226 232 231 225 221 220 219 215 215 221 224 225 234 251 257 256 254 251 251 255 260 263 266 269 273 280 283 274 264 262 263 262 263 267 268 265 261 253 249 250 244 237 232 221 203 171 152 142 126 105 78 68 59 45 42 44
54 38 35 43 41 57 97 108 109 114 123 127 127 138 153 162 174 184 188 190 194 200 206 212 218 218 213 213 218 223 225 225 223 221 220 218 216 215 221 224 219 226 251 263 267 264 258 255 257 262 264 267 273 275 281 288 282 271 264 265 264 263 268 270 268 267 264 261 261 257 253 252 249 242 226 208 193 176 148 106 77 59 43 35 37
26 16 10 4 0 360 22 63 85 98 111 115 114 120 132 144 154 165 176 183 187 192 196 203 211 213 211 211 216 220 223 225 225 223 220 218 218 217 220 224 218 215 226 238 248 258 264 262 264 267 267 270 275 275 274 276 274 270 266 267 267 266 268 268 267 266 264 264 266 262 258 259 260 257 248 239 228 213 191 156 114 53 35 25 30
18 19 11 3 358 351 359 12 22 34 55 76 93 110 123 133 141 148 158 173 183 187 190 194 200 206 211 216 221 225 227 226 223 221 218 217 218 219 224 232 228 219 222 233 243 253 263 266 268 268 266 265 269 273 273 270 269 269 270 273 275 274 273 270 267 264 261 261 263 263 260 260 262 262 258 255 247 234 222 207 202 192 13 9 23
23 20 13 12 6 356 3 10 11 13 18 27 44 69 94 114 131 139 143 156 173 180 185 193 198 203 210 215 219 222 223 221 218 217 218 218 221 228 233 236 234 230 234 244 248 253 257 260 264 263 258 259 266 272 274 271 268 270 273 278 282 279 277 275 271 268 264 259 259 261 261 260 261 260 258 258 254 249 249 242 230 251 347 1 9
26 23 22 25 18 16 21 20 18 16 13 11 15 25 45 76 104 124 134 146 159 169 176 186 193 200 210 216 219 220 221 220 218 216 216 217 221 227 228 227 228 231 239 246 247 250 250 250 253 254 255 262 266 270 273 272 270 272 276 279 280 280 280 279 277 275 269 263 260 260 259 259 257 252 250 251 246 241 245 243 236 263 357 2 357
34 34 33 32 30 28 28 27 28 27 22 15 10 11 26 47 62 79 103 131 155 167 172 181 187 194 207 221 230 228 219 216 217 217 217 218 219 220 220 223 232 240 246 249 250 250 247 246 249 255 260 263 263 264 268 269 268 269 270 272 275 279 281 280 280 279 277 273 269 264 259 256 255 249 243 238 232 232 234 228 219 234 320 336 333
43 44 41 38 35 33 32 34 37 38 34 29 23 17 19 26 35 48 61 70 104 155 165 179 188 196 210 223 233 231 220 216 220 224 224 224 223 220 221 227 238 249 251 250 252 255 251 247 249 253 257 259 259 258 256 254 254 256 259 265 268 269 270 271 271 273 275 276 275 271 264 260 260 254 240 229 223 221 218 213 213 234 248 256 280
38 40 40 41 42 45 46 43 41 39 36 34 36 34 26 22 24 30 41 65 79 108 153 175 184 192 204 210 213 220 221 221 222 224 225 222 215 211 211 215 220 225 227 231 239 244 239 231 232 238 243 245 245 238 227 225 239 247 253 264 269 270 269 267 267 267 268 269 271 272 269 267 265 255 238 227 220 211 204 206 219 225 222 235 266
29 27 25 20 19 31 41 40 36 32 29 29 35 39 37 35 34 30 28 29 39 80 118 140 167 186 198 206 212 217 220 218 214 212 210 203 198 196 192 185 179 177 179 183 184 181 178 186 203 218 226 229 230 230 230 231 222 216 252 292 302 297 285 279 275 270 267 267 266 267 268 267 264 250 232 220 211 204 203 214 226 224 224 235 249
31 27 26 22 16 12 17 21 20 20 23 24 26 31 38 40 39 35 29 23 20 20 22 28 46 182 201 222 230 227 220 216 213 216 216 205 189 176 162 151 144 140 136 131 123 116 110 106 101 132 236 243 252 253 253 244 225 225 268 305 318 311 298 291 286 279 273 270 267 268 268 266 262 248 228 214 206 203 208 219 221 221 228 235 241
41 33 33 33 31 24 20 20 20 21 24 23 18 17 19 24 28 29 25 23 24 20 8 358 353 331 293 256 235 220 213 211 207 202 189 171 161 155 149 144 141 137 133 127 120 110 92 71 47 13 334 292 270 255 248 247 240 240 260 284 304 315 311 302 297 291 282 273 271 275 272 265 259 242 217 204 201 204 211 217 219 220 225 231 242
35 36 36 38 41 40 35 31 27 27 26 22 17 7 354 350 358 7 7 5 10 13 11 10 12 359 309 265 237 221 210 189 176 171 166 160 157 157 157 157 154 146 137 133 129 121 101 66 33 7 343 316 293 273 258 257 252 244 249 265 280 306 320 313 310 311 305 294 282 276 268 257 243 220 201 194 198 207 212 214 215 215 221 236 256
21 24 27 28 29 28 24 18 15 17 18 17 15 9 355 340 330 336 341 335 328 331 337 347 22 51 33 348 228 209 210 201 191 187 184 181 180 178 177 175 168 155 142 136 135 126 104 62 36 20 6 350 327 300 277 270 262 250 246 253 264 281 307 316 314 316 321 324 306 264 248 242 224 205 196 197 202 208 211 213 218 225 243 267 273
10 13 12 11 12 10 7 4 3 4 4 2 2 3 1 351 337 330 326 320 314 312 311 308 298 119 34 339 333 186 197 206 212 215 211 205 200 193 187 181 174 167 158 154 149 135 84 32 21 14 7 359 345 321 297 286 273 255 246 244 249 256 253 226 245 247 216 198 190 171 169 193 195 189 190 197 202 210 222 230 241 252 260 262 265
356 360 358 356 356 357 356 356 356 356 354 350 345 345 348 347 342 336 329 323 319 312 301 290 273 250 255 278 285 277 264 243 227 224 222 220 215 203 192 186 186 197 202 188 181 196 316 355 4 5 3 360 353 338 314 298 277 258 248 236 233 238 221 184 181 180 169 159 155 153 150 158 171 175 181 192 202 217 232 239 251 264 264 264 279
349 350 350 348 344 344 345 344 344 343 343 342 337 332 333 332 329 327 326 327 325 317 305 294 282 268 262 267 269 264 262 263 257 245 235 226 218 210 209 213 218 224 223 213 214 234 254 292 336 351 358 359 355 351 341 322 268 244 237 223 222 228 212 184 175 172 168 160 154 153 151 154 167 174 175 186 201 222 252 267 279 290 293 296 301
349 349 350 346 339 336 335 332 333 332 329 330 327 320 319 318 312 311 315 316 317 319 315 305 294 279 267 262 260 254 248 242 237 231 223 214 210 211 214 217 216 216 219 219 217 222 231 247 283 321 350 355 351 347 344 330 238 214 211 208 216 220 209 194 182 172 167 161 157 157 155 153 161 166 169 227 312 325 318 312 312 311 312 311 310
348 350 351 349 342 336 331 326 323 321 317 316 313 309 308 306 302 304 307 306 306 310 311 308 303 292 276 262 255 247 235 225 222 221 216 209 206 206 205 204 203 201 205 209 211 215 225 236 248 257 284 342 344 335 324 301 226 197 190 195 207 209 203 202 195 181 174 169 164 163 160 157 161 169 301 317 327 330 326 327 331 327 322 318 317
347 346 346 347 343 336 329 324 319 317 314 309 302 298 297 296 298 303 306 303 302 304 304 303 301 297 289 275 260 249 240 235 232 227 219 210 204 201 199 198 195 192 195 202 209 216 224 230 234 235 227 215 231 280 285 270 238 208 196 196 199 196 193 197 193 181 175 171 166 162 161 162 171 25 358 349 349 350 341 338 334 327 322 319 318
337 337 336 336 333 328 325 321 318 317 316 311 306 303 299 295 297 302 303 302 303 303 301 300 298 295 294 293 284 265 249 242 235 225 214 207 202 199 196 193 191 192 196 201 207 215 224 227 227 227 224 213 205 209 223 231 224 208 196 192 189 181 178 181 176 164 160 160 158 155 154 150 134 85 72 61 67 70 36 355 338 327 322 320 320
328 329 329 327 323 320 318 315 312 312 311 308 305 304 302 298 295 296 296 297 299 299 298 298 296 294 292 293 296 289 268 248 235 224 216 211 208 205 200 194 192 195 198 201 205 209 214 220 223 223 220 212 202 198 201 201 199 193 182 174 171 166 162 163 161 153 152 154 152 150 148 141 131 122 112 99 83 60 22 348 334 328 324 325 326
323 324 324 321 318 314 312 310 307 306 307 307 302 298 297 296 294 292 290 289 289 290 291 291 291 291 289 286 285 288 283 259 238 226 219 215 214 212 208 202 198 196 197 197 200 203 208 215 219 218 215 209 200 195 192 188 185 183 177 170 167 162 158 157 155 153 154 155 151 146 142 137 130 118 101 80 60 28 357 343 338 335 334 333 332
318 320 320 318 315 311 308 306 303 303 304 303 299 296 295 294 293 291 289 288 284 280 280 283 283 283 283 281 277 276 279 274 255 237 227 221 217 215 214 212 208 206 202 198 198 203 210 217 218 215 211 205 200 199 197 192 190 187 180 174 169 163 160 160 159 157 156 152 149 145 138 129 119 105 87 59 35 15 2 354 348 342 338 335 332
313 317 317 314 311 307 305 303 302 303 303 299 295 293 292 291 290 288 287 287 283 276 274 275 275 274 273 273 272 269 269 273 270 255 240 231 224 219 218 218 216 213 211 209 209 211 218 223 222 220 213 205 205 208 205 197 195 193 187 181 174 169 166 164 162 164 159 152 147 142 134 124 110 86 62 40 24 14 6 357 348 343 342 340 339
312 314 313 310 307 306 303 301 302 304 303 300 297 295 293 290 288 284 282 279 276 275 274 272 271 270 268 267 269 268 265 266 267 261 248 235 227 220 216 215 214 212 211 212 213 220 230 229 221 217 214 213 219 220 207 195 190 188 185 181 176 172 169 162 160 163 161 153 146 138 127 114 93 66 46 33 23 11 0 353 348 348 350 348 347
311 310 307 306 307 306 303 301 303 305 303 300 298 298 296 293 290 285 280 275 271 269 270 269 268 267 264 263 263 264 262 260 258 256 248 237 231 226 219 217 219 218 215 216 221 227 227 217 207 207 211 214 221 218 202 194 188 182 178 175 171 168 164 160 162 162 156 150 145 135 122 106 84 64 45 30 18 3 356 353 351 351 353 351 348
Height
774 775 777 779 780 781 782 782 783 784 785 787 789 791 793 795 797 800 803 804 805 805 806 807 808 809 811 812 813 814 815 816 816 817 818 819 819 820 821 821 821 821 822 822 823 823 824 824 824 823 823 824 825 826 828 829 829 829 831 833 832 832 833 834 834 835 835 836 836 837 837 838 838 838 839 839 839 839 839 840 840 840 841 841 841
774 775 777 778 779 781 783 784 784 784 785 787 789 790 793 795 797 800 801 803 804 805 806 806 807 808 810 812 813 814 816 816 817 818 819 819 820 821 821 821 822 822 822 823 823 824 824 824 824 824 824 824 825 826 828 829 829 829 830 832 832 832 833 834 834 835 835 835 836 837 837 838 838 838 838 838 838 839 839 839 840 840 841 842 842
774 775 776 777 779 781 782 783 784 785 786 787 789 790 793 795 797 799 800 802 803 804 805 805 807 808 810 812 813 815 816 817 818 819 819 820 820 821 822 822 823 823 824 824 824 824 824 825 825 825 825 825 826 826 828 828 828 829 829 830 831 831 833 833 834 834 834 835 836 837 838 838 838 837 837 838 838 838 838 839 840 840 841 842 843
773 774 776 777 777 779 780 782 784 785 786 786 788 790 791 794 796 797 799 800 802 803 804 805 806 808 810 812 814 815 816 817 819 820 820 821 821 822 822 823 824 824 825 825 825 825 825 825 825 825 825 825 826 826 827 827 828 828 829 829 830 831 832 833 833 834 834 834 836 838 839 839 839 837 837 838 838 838 838 839 840 841 841 842 843
773 774 775 776 776 778 779 780 782 783 785 785 787 788 790 792 794 795 797 799 800 801 802 804 806 808 810 812 814 815 816 818 819 820 821 821 821 822 822 823 824 825 826 826 826 826 826 826 826 825 825 825 825 825 826 827 828 829 829 830 830 830 831 832 833 833 833 833 834 836 838 839 838 837 837 838 838 838 839 839 840 841 841 841 842
773 775 776 776 777 778 779 779 781 782 783 785 786 788 789 791 792 793 795 797 799 800 801 803 805 807 809 811 813 815 816 818 819 820 821 822 822 822 823 824 825 825 826 826 827 827 827 827 827 826 826 826 825 825 826 827 828 829 830 830 830 830 831 831 832 833 833 833 833 834 835 836 836 837 838 838 838 839 839 840 840 841 841 841 842
773 774 775 776 777 777 777 778 779 781 783 785 786 788 788 789 791 792 794 796 798 800 801 803 804 807 809 811 813 814 816 817 819 820 821 822 822 822 823 824 825 826 827 827 827 828 828 828 828 827 827 827 827 827 827 827 828 829 829 830 831 831 831 831 832 833 833 834 834 834 834 834 834 835 837 838 839 840 841 841 841 842 841 841 841
772 773 774 775 775 775 775 777 779 781 783 785 787 788 789 791 792 794 795 797 799 800 802 803 804 807 809 812 814 815 817 818 819 820 821 822 823 823 823 824 826 827 828 828 828 828 829 828 828 828 828 828 828 828 828 829 829 830 830 831 831 832 832 832 832 833 833 833 834 834 835 835 835 835 836 837 838 841 844 843 842 843 841 841 840
771 772 773 773 774 774 776 778 780 782 783 786 789 792 795 797 796 797 797 798 800 802 804 805 806 808 810 813 815 817 819 819 820 821 821 822 823 823 824 825 826 827 828 829 829 829 829 829 829 829 829 829 829 830 830 830 831 831 831 831 832 832 832 832 832 832 833 833 833 834 835 836 836 836 836 837 837 841 845 845 844 843 842 842 841
769 771 772 772 774 775 777 779 781 783 785 788 791 795 799 800 798 797 798 799 801 803 805 807 807 809 811 814 816 818 819 820 821 822 822 823 824 824 824 825 826 827 828 829 830 830 830 830 830 830 829 830 830 830 831 831 832 832 832 832 832 832 832 832 832 832 833 833 833 834 835 836 836 836 837 838 838 840 843 845 845 844 844 844 843
769 770 772 773 775 776 778 780 782 785 787 789 790 792 795 795 796 797 798 800 802 804 806 807 807 809 812 814 816 817 818 819 820 822 822 823 824 825 825 826 826 827 829 829 830 831 831 831 830 830 830 830 831 831 832 832 833 833 833 833 833 833 832 832 832 832 833 833 834 835 836 836 836 837 838 839 839 840 842 844 845 845 846 846 846
768 770 772 773 775 777 779 781 784 786 787 789 789 790 790 791 795 797 799 802 804 806 807 807 807 809 811 813 815 817 818 819 820 821 822 823 824 825 825 826 827 828 829 830 831 831 832 832 831 831 831 832 832 832 833 833 833 834 834 834 834 834 833 833 833 833 834 834 835 836 836 837 837 838 839 839 839 840 841 843 845 846 847 847 847
769 772 774 774 775 776 779 781 784 786 787 788 788 789 789 791 794 797 800 804 806 808 809 807 807 808 810 812 814 816 818 819 821 822 822 823 825 825 826 827 828 829 830 831 832 832 833 833 833 833 833 833 833 833 834 834 834 835 835 835 835 835 834 834 834 834 835 835 836 837 837 838 838 839 839 840 840 840 841 842 844 846 846 847 847
770 774 778 780 778 776 779 782 784 785 787 787 787 788 789 790 794 798 803 805 806 808 808 808 808 808 810 812 814 816 818 819 821 822 823 824 825 826 827 828 829 830 831 832 832 833 834 834 834 834 834 835 835 835 835 835 835 835 836 836 836 836 835 834 834 834 835 836 836 837 837 838 839 839 840 840 840 841 841 842 843 845 846 847 848
770 772 777 784 785 781 780 782 783 784 785 786 787 787 789 793 797 802 806 807 807 808 808 808 809 810 812 813 814 816 817 819 820 822 823 824 826 827 828 829 830 831 832 833 833 834 835 835 836 836 836 837 836 836 836 836 836 836 836 836 836 836 835 835 835 835 835 836 836 837 837 838 839 840 840 840 840 841 841 841 842 844 847 848 849
771 771 771 779 786 785 782 781 781 782 783 785 785 787 791 795 798 802 807 808 808 808 808 807 808 810 812 813 814 816 817 819 820 822 824 825 826 828 829 830 831 832 833 834 835 835 836 837 838 838 839 839 839 839 838 837 837 836 836 836 836 836 836 835 835 835 835 836 837 837 838 838 839 840 840 841 841 841 842 842 842 843 845 848 850
777 777 772 775 783 785 782 781 781 781 783 784 785 789 794 796 799 804 808 807 806 806 806 806 807 808 811 813 815 816 818 819 821 822 824 826 827 828 830 831 832 833 834 835 836 837 837 838 839 840 840 841 841 841 840 840 839 838 838 838 837 837 837 836 836 836 837 837 838 838 839 839 840 841 841 841 842 842 843 843 843 843 844 846 848
780 783 779 779 782 782 782 781 781 781 782 784 786 791 795 797 800 803 804 802 802 804 805 805 806 808 811 813 814 816 817 819 821 822 825 826 827 829 830 831 832 833 834 835 836 837 838 839 839 841 842 842 843 842 842 842 841 840 840 839 839 839 839 839 838 838 838 839 839 840 840 841 841 842 842 842 843 843 843 843 844 844 844 845 847
780 784 784 782 780 780 781 781 780 780 782 784 787 792 794 797 800 801 800 800 801 803 804 804 806 807 810 811 813 815 816 819 820 822 824 826 827 828 830 831 832 833 834 835 836 837 838 839 839 841 841 842 843 843 843 843 842 842 842 841 841 841 841 840 840 840 840 840 841 841 842 842 843 843 843 843 844 844 844 844 844 845 845 846 846
780 784 784 782 780 780 780 780 780 781 783 786 788 792 794 797 799 799 799 800 801 802 802 804 805 806 809 810 811 813 815 818 819 820 823 825 826 827 828 830 832 833 834 835 836 837 837 838 839 840 841 842 843 843 843 843 843 843 843 843 843 843 842 842 841 842 842 842 842 842 843 843 844 844 844 845 845 845 845 845 846 846 846 847 847
782 783 782 782 781 782 781 780 781 782 785 787 789 792 794 796 797 797 798 799 800 801 801 803 805 806 808 809 810 811 813 816 818 819 822 824 826 826 827 830 831 832 834 835 836 836 837 838 839 840 841 842 843 843 843 843 843 843 844 843 844 844 844 843 843 843 843 843 843 843 844 844 844 845 845 845 846 846 846 846 847 847 847 847 848
782 782 782 783 782 782 782 782 783 784 786 788 790 792 794 795 797 797 798 798 799 800 801 803 806 806 807 808 809 811 813 815 818 819 821 823 825 825 826 828 830 832 833 834 835 836 836 837 838 840 841 842 843 843 843 844 843 843 843 843 844 844 844 844 844 844 844 844 844 844 845 845 845 846 846 846 847 847 847 847 847 847 847 848 848
782 782 783 784 783 782 782 782 784 784 786 788 790 792 794 795 796 797 798 798 799 801 802 803 806 806 807 807 809 811 812 815 817 818 820 822 823 824 825 827 829 831 832 833 834 835 835 837 838 839 840 841 842 843 843 843 843 843 843 843 843 844 844 844 844 844 845 845 845 845 845 846 846 846 846 847 847 847 847 848 848 848 848 848 848
784 782 783 784 783 783 782 782 784 784 786 788 790 793 794 796 797 798 798 799 800 801 802 804 805 806 807 807 808 810 812 814 816 817 819 821 823 824 824 826 828 829 831 832 833 834 835 837 838 838 840 840 841 842 843 843 843 843 843 842 842 843 843 843 844 844 844 845 845 845 846 846 846 846 846 847 847 847 848 848 848 848 848 848 848
783 782 783 784 784 785 784 784 785 785 786 788 790 793 794 796 798 798 799 800 801 802 803 804 805 805 807 807 809 811 812 814 815 816 818 820 821 823 824 825 827 829 831 833 834 835 835 836 837 838 839 839 840 840 842 843 844 843 842 842 842 842 842 843 843 843 844 844 845 845 846 846 846 846 846 846 847 847 847 848 848 848 848 848 849
784 784 785 786 786 787 786 786 787 787 788 789 791 792 794 795 797 798 799 800 801 802 802 803 804 805 807 808 810 811 812 813 814 815 817 819 820 822 823 824 825 828 831 832 833 834 834 835 837 837 838 838 838 839 840 843 844 844 842 842 841 841 841 842 842 843 843 843 844 844 845 845 846 846 846 846 846 846 846 847 847 848 848 848 848
788 789 789 790 790 790 790 789 789 790 790 791 792 793 793 795 796 797 799 800 801 802 802 803 804 805 807 809 810 810 811 812 813 814 816 818 819 821 822 822 823 824 826 828 829 831 833 834 835 835 836 837 837 837 838 840 842 842 842 840 840 840 840 840 841 841 842 843 843 843 844 844 845 845 845 845 846 846 846 846 846 847 847 848 848
793 794 794 795 795 794 793 792 792 792 792 793 794 795 795 795 795 797 798 799 801 802 802 803 804 805 807 808 809 810 811 811 812 814 815 817 818 819 819 820 822 823 824 826 827 829 831 832 833 834 835 836 836 836 837 838 838 839 840 839 838 838 838 839 839 839 840 841 842 842 842 843 843 844 844 845 845 845 845 845 846 846 846 847 847
796 798 799 799 799 798 796 794 794 794 794 795 795 797 797 796 796 797 798 799 800 801 802 803 804 805 806 807 808 809 810 811 812 813 814 816 817 817 818 820 821 822 823 824 826 826 828 830 831 832 833 834 835 835 835 836 836 836 837 837 836 837 837 837 837 837 838 839 840 840 841 841 842 842 843 844 844 845 845 845 845 846 846 846 847
801 802 802 802 801 799 797 796 796 796 796 797 797 798 799 799 798 798 798 799 800 801 802 803 804 805 805 806 807 808 809 810 811 812 813 815 816 817 818 819 820 821 821 822 824 825 826 828 829 831 832 832 832 833 833 834 834 834 835 835 835 835 835 836 836 836 836 836 837 838 839 839 840 841 842 843 844 844 844 845 845 845 846 846 846
805 804 804 803 802 801 800 799 799 799 799 799 799 800 801 801 801 800 800 800 801 801 802 802 803 804 805 806 807 807 808 808 809 811 812 813 815 816 817 818 819 819 820 821 822 823 824 826 828 829 830 830 831 831 831 832 833 833 833 833 833 833 834 834 834 834 834 834 835 836 837 837 838 838 840 841 842 843 843 844 844 844 845 845 846
807 806 805 804 804 803 803 803 802 801 801 801 801 801 802 803 803 803 802 802 802 802 802 802 803 804 805 806 806 806 807 808 809 810 811 812 814 815 816 817 817 817 818 819 821 822 823 825 826 827 828 828 829 829 830 831 831 831 831 831 831 832 832 832 832 832 832 832 833 833 834 835 835 836 838 839 840 841 842 843 843 844 844 845 845
810 809 808 807 807 806 805 805 804 804 804 803 803 803 803 804 804 805 805 804 804 804 803 804 804 804 805 805 805 806 806 807 808 809 810 811 812 813 814 815 815 816 817 818 820 821 822 823 825 826 826 826 827 828 829 829 829 830 830 830 830 830 831 831 830 830 830 831 831 831 832 832 833 834 835 837 838 839 841 842 842 843 843 844 845
812 812 811 810 809 808 808 807 807 806 806 806 805 805 805 805 804 805 806 806 806 806 805 805 805 805 806 806 806 806 806 807 808 809 809 810 810 811 812 813 815 816 817 818 819 820 821 822 823 824 824 825 825 826 826 827 828 828 828 829 829 829 829 829 829 829 828 828 829 829 830 830 831 832 834 835 836 838 839 840 841 842 842 843 843
815 815 813 812 811 810 810 810 809 808 807 807 807 807 806 806 806 806 807 807 808 807 807 807 806 806 807 807 807 807 807 808 808 808 809 809 810 811 812 813 815 815 816 818 818 819 820 821 822 822 822 823 823 824 825 825 826 827 827 827 828 828 828 827 827 827 827 827 827 828 828 829 830 831 832 834 835 837 838 839 840 841 841 842 842
818 817 815 814 814 813 812 812 811 811 809 808 809 809 808 808 807 808 808 809 810 810 809 808 807 807 808 808 808 808 807 808 808 808 809 809 810 811 812 813 815 815 817 818 818 819 820 820 821 821 822 822 823 823 824 824 825 825 826 826 826 826 826 826 826 825 825 826 826 826 827 828 829 830 832 834 835 836 837 838 839 840 840 840 840
819 818 817 816 815 815 814 813 813 812 811 810 810 809 809 809 809 809 810 810 811 811 811 810 809 809 809 809 809 809 808 808 809 809 810 811 811 812 813 814 814 815 816 817 818 819 820 821 821 822 822 823 823 823 823 823 824 824 825 825 825 825 825 825 825 825 825 825 825 826 827 828 829 830 832 834 835 836 837 838 838 839 839 839 839
819 818 818 817 816 816 815 814 813 813 812 811 811 810 810 810 810 810 810 810 810 810 810 810 809 809 809 810 809 809 809 810 810 810 811 811 812 813 813 814 815 815 816 817 818 819 820 821 822 822 822 822 822 822 822 822 823 823 824 824 824 824 824 824 825 825 825 826 826 826 827 828 829 831 832 834 835 835 836 837 837 838 838 838 838
819 819 819 818 818 817 816 816 815 813 813 812 812 811 811 810 810 810 809 809 809 809 809 809 809 809 809 810 810 810 810 810 810 811 811 812 813 813 813 814 815 815 816 817 818 819 819 820 820 820 821 821 821 821 821 821 822 822 823 823 824 824 824 824 825 826 826 827 827 828 829 829 830 832 833 834 835 835 836 836 836 837 837 837 838
819 819 819 819 818 818 817 816 815 815 814 813 812 812 811 810 810 809 809 809 808 808 808 808 808 808 808 809 809 810 809 810 810 811 811 812 813 813 813 814 814 815 816 816 817 817 818 819 819 819 820 820 820 820 820 820 821 821 822 822 823 824 824 824 825 826 827 828 828 829 830 830 831 832 833 834 834 834 835 835 835 836 836 837 837
819 819 818 818 818 817 817 816 816 815 815 814 813 812 810 810 809 808 808 808 807 807 806 806 806 806 805 806 807 807 807 808 808 809 810 811 812 812 813 813 814 814 815 815 816 816 817 818 818 819 819 819 819 819 819 820 820 820 821 822 823 824 824 824 826 827 828 828 829 829 830 831 831 832 833 833 834 834 834 835 835 835 836 836 836
819 819 818 818 817 817 816 816 816 815 814 813 813 812 810 810 809 808 807 807 806 806 805 804 804 804 803 803 804 804 805 806 806 807 808 809 810 811 811 812 812 813 814 814 815 815 816 817 818 818 818 818 818 819 819 819 820 820 821 821 823 823 824 825 826 827 828 829 830 830 831 831 832 833 833 833 834 834 835 834 834 834 834 835 835
819 819 818 818 816 815 815 814 814 814 813 813 812 811 810 809 808 807 807 806 805 804 804 803 802 802 801 801 802 803 803 804 804 805 805 806 807 808 809 810 811 812 812 813 813 814 815 816 816 817 817 817 818 818 819 819 819 820 820 821 822 823 824 825 826 827 828 829 830 831 831 832 833 833 833 834 834 834 834 834 834 834 834 834 834
820 819 818 817 816 815 814 813 813 812 812 811 811 809 808 807 807 806 806 805 804 803 802 802 801 800 800 799 800 800 801 802 802 802 803 803 804 805 806 807 808 809 810 811 812 813 813 814 815 816 816 816 817 817 818 818 819 819 820 821 822 823 824 825 826 827 828 829 830 831 831 832 833 833 833 833 833 834 834 834 833 833 833 833 833
820 819 818 817 816 815 813 812 812 811 810 810 809 808 807 806 805 805 804 803 803 802 801 800 799 798 798 798 797 797 798 799 799 799 800 800 801 802 803 804 806 807 808 809 810 811 812 812 813 814 815 815 815 816 817 818 818 819 820 821 822 823 824 825 826 827 828 829 830 831 831 832 832 833 833 833 833 833 833 833 833 833 833 833 832
819 818 817 816 815 814 812 811 810 809 809 809 808 807 806 804 804 803 802 802 801 800 799 798 797 797 796 795 795 795 795 796 796 797 797 798 799 800 800 801 803 804 805 806 807 809 810 811 812 813 813 814 814 815 815 816 817 818 819 820 822 822 824 825 826 827 828 829 830 831 831 832 832 832 833 833 833 833 833 833 833 833 832 832 832
817 816 816 815 814 812 811 809 808 807 807 807 806 805 804 803 802 801 800 799 798 797 797 796 795 795 794 793 793 793 793 793 793 794 794 795 796 797 798 798 799 801 802 804 805 806 807 808 809 811 812 813 814 814 814 815 816 817 819 820 821 822 823 825 826 827 828 829 829 830 831 831 832 832 833 833 833 833 833 833 833 833 832 832 831
815 814 814 813 811 810 809 807 806 805 805 804 803 802 801 800 800 799 798 797 796 794 794 793 793 792 792 791 791 791 791 791 791 791 791 792 793 794 795 795 796 797 799 800 801 803 804 805 807 808 809 811 812 813 813 814 815 816 817 819 820 822 823 824 825 826 828 828 829 830 831 831 832 832 833 833 833 833 833 833 833 832 832 831 830
814 813 812 811 810 808 806 805 803 802 801 800 799 798 797 797 796 796 796 795 793 792 791 790 789 789 789 789 789 788 789 789 789 789 789 790 790 791 792 793 794 795 796 797 798 800 801 803 804 805 807 808 809 810 811 813 814 815 817 818 820 821 822 824 825 826 827 828 829 830 830 831 832 832 833 833 833 833 833 833 832 832 831 830 829
813 811 810 809 808 806 804 802 800 799 798 796 795 793 793 792 792 792 792 791 790 789 787 786 786 786 785 786 786 786 786 787 787 787 787 787 788 789 790 791 792 793 794 795 796 797 799 800 801 802 804 805 807 808 810 812 813 815 816 818 819 820 821 823 824 826 827 828 829 830 830 831 832 832 832 833 833 833 833 832 832 831 830 829 827
812 810 808 807 805 804 802 800 798 796 795 793 791 790 788 787 787 786 786 786 786 785 784 783 783 783 782 783 783 783 784 784 784 785 785 786 787 788 788 789 790 792 793 793 794 795 797 798 799 800 802 804 806 807 809 811 812 814 816 817 818 820 821 822 824 825 826 827 828 829 830 831 832 832 832 833 833 832 832 831 830 830 829 828 826